Location: ???????
(60.4260°N, 46.9069°E)
Time: 07:57:00
(UTC+00:00)

Cosmos 405 Rocket - Pass Details

Date: 30 March 2020
Orbit: 491 x 554 km, 81.3° (Epoch: 25 May)

Event Time Altitude Azimuth Distance (km) Brightness Sun altitude
Rises 00:14:43 0° 340° (NNW) 2,589 6.5 -15.1°
Reaches altitude 10° 00:16:53 10° 335° (NNW) 1,700 5.5 -14.9°
Maximum altitude 00:20:27 47° 261° (W) 669 2.8 -14.6°
Enters shadow 00:22:43 20° 195° (SSW) 1,195 4.1 -14.4°
